Location: Callanans Corners
(42.5326°N, 73.8846°W)
Time: 16:40:27
(UTC+00:00)

Cosmos 1674 Rocket - Pass Details

Date: 06 October 2022
Orbit: 602 x 629 km, 82.5° (Epoch: 05 December)

Event Time Altitude Azimuth Distance (km) Brightness Sun altitude
Rises 23:21:53 0° 349° (N) 2,909 7.2 -10.7°
Reaches altitude 10° 23:24:07 10° 347° (NNW) 2,002 6.4 -11.1°
Maximum altitude 23:28:32 68° 264° (W) 675 4.0 -11.9°
Drops below altitude 10° 23:32:56 10° 182° (S) 1,999 6.2 -12.7°
Sets 23:35:10 0° 180° (S) 2,903 7.0 -13.2°
